Weather History for KN03 - August, 2014

Change the Weather History Date:

Sunday, August 17, 2014

  Actual Average (KBGM) Record (KBGM)
Temperature  
Mean Temperature 60 °F 68 °F  
Max Temperature 68 °F 77 °F 92 °F (1987)
Min Temperature 51 °F 59 °F 42 °F (1971)
Degree Days  
Heating Degree Days 6 1  
Month to date heating degree days 17  
Since 1 June heating degree days 132  
Since 1 July heating degree days 41  
Cooling Degree Days 0 4  
Month to date cooling degree days 68  
Year to date cooling degree days 303  
Since 1 June cooling degree days 280  
Growing Degree Days 10 (Base 50)    
Moisture  
Dew Point 57 °F    
Average Humidity 85    
Maximum Humidity 100    
Minimum Humidity 60    
Precipitation  
Precipitation 0.00 in 0.12 in 0.82 in (1994)
Month to date precipitation 1.90  
Year to date precipitation 24.66  
Snow  
Snow 0.00 in 0.00 in 0.00 in (2002)
Month to date snowfall 0.0  
Since 1 June snowfall 0.0  
Since 1 July snowfall 0.0  
Snow Depth -    
Sea Level Pressure  
Sea Level Pressure 29.94 in    
Wind  
Wind Speed 2 mph (NW)    
Max Wind Speed 10 mph    
Max Gust Speed 16 mph    
Visibility 10 miles    
Events Rain    
T = Trace of Precipitation, MM = Missing Value Source: NWS Daily Summary

Daily Weather History Graph

Daily Weather History Graph

Search for Another Location

Airport or City:

Trip Planner

Search our weather history database for the weather conditions in past years. The results will help you decide how hot, cold, wet, or windy it might be!

Date:

Astronomy

Aug. 17, 2014 Rise Set
Actual Time 6:13 AM EDT 8:03 PM EDT
Civil Twilight 5:43 AM EDT 8:33 PM EDT
Nautical Twilight 5:06 AM EDT 9:10 PM EDT
Astronomical Twilight 4:26 AM EDT 9:49 PM EDT
Moon No Moon Rise 2:07 PM EDT (8/17)
Length of Visible Light 14h 50m
Length of Day
13h 49m
Waning Gibbous, 48% of the Moon is Illuminated
Aug 17
Waning Gibbous
Aug 25
New
Sep 2
First Quarter
Sep 8
Full
Sep 15
Last Quarter

Hourly Weather History & Observations

Time (EDT) Temp. Dew Point Humidity Pressure Visibility Wind Dir Wind Speed Gust Speed Precip Events Conditions
12:15 AM 59.0 °F 59.0 °F 100% 29.91 in 10.0 mi Calm Calm - N/A   Light Drizzle
12:35 AM 59.0 °F 59.0 °F 100% 29.90 in 10.0 mi Calm Calm - N/A   Overcast
12:55 AM 59.0 °F 59.0 °F 100% 29.90 in 10.0 mi Calm Calm - N/A Rain Light Rain
1:15 AM 59.0 °F 59.0 °F 100% 29.89 in 10.0 mi Calm Calm - N/A   Overcast
1:55 AM 59.0 °F 59.0 °F 100% 29.88 in 10.0 mi Calm Calm - N/A   Overcast
2:15 AM 59.0 °F 59.0 °F 100% 29.88 in 10.0 mi Calm Calm - N/A   Overcast
2:35 AM 59.0 °F 59.0 °F 100% 29.88 in 10.0 mi Calm Calm - N/A   Overcast
3:15 AM 59.0 °F 59.0 °F 100% 29.88 in 10.0 mi Calm Calm - N/A   Overcast
3:35 AM 59.0 °F 59.0 °F 100% 29.87 in 10.0 mi WSW 3.5 mph - N/A   Overcast
3:55 AM 59.0 °F 59.0 °F 100% 29.87 in 10.0 mi WSW 3.5 mph - N/A   Overcast
4:15 AM 60.8 °F 59.0 °F 94% 29.87 in 10.0 mi WSW 3.5 mph - N/A   Overcast
4:35 AM 59.0 °F 59.0 °F 100% 29.87 in 10.0 mi WSW 3.5 mph - N/A   Overcast
4:55 AM 59.0 °F 59.0 °F 100% 29.88 in 10.0 mi Calm Calm - N/A   Overcast
5:15 AM 59.0 °F 59.0 °F 100% 29.88 in 10.0 mi Calm Calm - N/A   Overcast
5:35 AM 60.8 °F 59.0 °F 94% 29.88 in 10.0 mi Calm Calm - N/A   Overcast
5:55 AM 59.0 °F 59.0 °F 100% 29.89 in 10.0 mi Calm Calm - N/A   Overcast
6:15 AM 60.8 °F 60.8 °F 100% 29.89 in 10.0 mi Calm Calm - N/A Rain Light Rain
6:35 AM 60.8 °F 60.8 °F 100% 29.90 in 10.0 mi Calm Calm - N/A   Overcast
6:55 AM 60.8 °F 60.8 °F 100% 29.90 in 10.0 mi Calm Calm - N/A   Overcast
7:15 AM 60.8 °F 60.8 °F 100% 29.91 in 10.0 mi Calm Calm - N/A   Overcast
7:35 AM 60.8 °F 60.8 °F 100% 29.92 in 7.0 mi WNW 4.6 mph - N/A   Overcast
7:55 AM 60.8 °F 60.8 °F 100% 29.92 in 7.0 mi WNW 5.8 mph - N/A   Overcast
8:15 AM 60.8 °F 60.8 °F 100% 29.92 in 10.0 mi WNW 4.6 mph - N/A   Overcast
8:35 AM 60.8 °F 60.8 °F 100% 29.93 in 10.0 mi WNW 3.5 mph - N/A   Overcast
8:55 AM 62.6 °F 60.8 °F 94% 29.93 in 10.0 mi WNW 5.8 mph - N/A   Overcast
9:15 AM 62.6 °F 60.8 °F 94% 29.93 in 10.0 mi NW 5.8 mph - N/A   Overcast
9:35 AM 62.6 °F 59.0 °F 88% 29.94 in 10.0 mi WNW 8.1 mph - N/A   Overcast
9:55 AM 62.6 °F 59.0 °F 88% 29.95 in 10.0 mi NNW 8.1 mph - N/A   Overcast
10:15 AM 64.4 °F 59.0 °F 83% 29.96 in 10.0 mi WNW 8.1 mph - N/A   Overcast
10:35 AM 62.6 °F 57.2 °F 82% 29.96 in 10.0 mi Calm Calm - N/A   Overcast
10:55 AM 64.4 °F 59.0 °F 83% 29.96 in 10.0 mi West 6.9 mph - N/A   Mostly Cloudy
11:15 AM 64.4 °F 57.2 °F 77% 29.96 in 10.0 mi NNW 3.5 mph 9.2 mph N/A   Mostly Cloudy
11:35 AM 64.4 °F 55.4 °F 73% 29.97 in 10.0 mi WNW 6.9 mph - N/A   Mostly Cloudy
11:55 AM 66.2 °F 55.4 °F 68% 29.96 in 10.0 mi West 8.1 mph 16.1 mph N/A   Mostly Cloudy
12:15 PM 68.0 °F 55.4 °F 64% 29.97 in 10.0 mi WNW 9.2 mph - N/A   Mostly Cloudy
12:35 PM 68.0 °F 55.4 °F 64% 29.97 in 10.0 mi WNW 8.1 mph - N/A   Mostly Cloudy
12:55 PM 66.2 °F 55.4 °F 68% 29.96 in 10.0 mi NNW 4.6 mph - N/A   Mostly Cloudy
1:15 PM 68.0 °F 55.4 °F 64% 29.97 in 10.0 mi NNW 8.1 mph - N/A   Mostly Cloudy
1:35 PM 68.0 °F 55.4 °F 64% 29.97 in 10.0 mi WNW 6.9 mph - N/A   Mostly Cloudy
1:55 PM 66.2 °F 55.4 °F 68% 29.97 in 10.0 mi NNW 6.9 mph - N/A   Overcast
2:15 PM 68.0 °F 55.4 °F 64% 29.97 in 10.0 mi WNW 10.4 mph - N/A   Mostly Cloudy
2:35 PM 66.2 °F 55.4 °F 68% 29.97 in 10.0 mi NW 6.9 mph - N/A   Mostly Cloudy
2:55 PM 68.0 °F 55.4 °F 64% 29.97 in 10.0 mi NW 5.8 mph - N/A   Mostly Cloudy
3:15 PM 68.0 °F 55.4 °F 64% 29.98 in 10.0 mi NNW 4.6 mph - N/A   Mostly Cloudy
3:35 PM 68.0 °F 53.6 °F 60% 29.97 in 10.0 mi NNW 8.1 mph - N/A   Mostly Cloudy
3:55 PM 68.0 °F 55.4 °F 64% 29.97 in 10.0 mi WNW 5.8 mph - N/A   Mostly Cloudy
4:15 PM 68.0 °F 53.6 °F 60% 29.97 in 10.0 mi NW 6.9 mph - N/A   Scattered Clouds
4:35 PM 68.0 °F 55.4 °F 64% 29.96 in 10.0 mi NW 9.2 mph - N/A   Scattered Clouds
4:55 PM 66.2 °F 55.4 °F 68% 29.97 in 10.0 mi NNW 4.6 mph - N/A   Scattered Clouds
5:15 PM 68.0 °F 53.6 °F 60% 29.97 in 10.0 mi NNW 5.8 mph - N/A   Scattered Clouds
5:35 PM 68.0 °F 55.4 °F 64% 29.97 in 10.0 mi North 5.8 mph - N/A   Scattered Clouds
5:55 PM 68.0 °F 55.4 °F 64% 29.97 in 10.0 mi NNW 5.8 mph - N/A   Clear
6:15 PM 68.0 °F 55.4 °F 64% 29.97 in 10.0 mi NNW 4.6 mph - N/A   Clear
6:35 PM 66.2 °F 55.4 °F 68% 29.97 in 10.0 mi NNW 5.8 mph - N/A   Clear
6:55 PM 64.4 °F 55.4 °F 73% 29.97 in 10.0 mi WNW 3.5 mph - N/A   Clear
7:15 PM 64.4 °F 55.4 °F 73% 29.97 in 10.0 mi Calm Calm - N/A   Clear
7:35 PM 62.6 °F 55.4 °F 77% 29.97 in 10.0 mi Calm Calm - N/A   Clear
7:55 PM 60.8 °F 55.4 °F 82% 29.98 in 10.0 mi Calm Calm - N/A   Clear
8:15 PM 59.0 °F 55.4 °F 88% 29.98 in 10.0 mi Calm Calm - N/A   Clear
8:35 PM 57.2 °F 55.4 °F 94% 29.98 in 10.0 mi Calm Calm - N/A   Clear
8:55 PM 55.4 °F 55.4 °F 100% 29.99 in 10.0 mi Calm Calm - N/A   Clear
9:15 PM 55.4 °F 55.4 °F 100% 29.99 in 10.0 mi Calm Calm - N/A   Clear
9:35 PM 55.4 °F 55.4 °F 100% 29.99 in 10.0 mi Calm Calm - N/A   Clear
9:55 PM 53.6 °F 53.6 °F 100% 29.99 in 10.0 mi Calm Calm - N/A   Clear
10:15 PM 53.6 °F 53.6 °F 100% 29.99 in 10.0 mi Calm Calm - N/A   Clear
10:55 PM 51.8 °F 51.8 °F 100% 30.00 in 10.0 mi Calm Calm - N/A   Clear
11:15 PM 51.8 °F 51.8 °F 100% 30.00 in 10.0 mi Calm Calm - N/A   Clear
11:35 PM 51.8 °F 51.8 °F 100% 30.00 in 10.0 mi SW 3.5 mph - N/A   Clear
11:55 PM 51.8 °F 51.8 °F 100% 30.00 in 10.0 mi Calm Calm - N/A   Clear